INSAT-4CR

Last updated on May 21, 2019, 3:10 a.m. UTC

1 32050U 07037A   19140.32480150  .00000115  00000-0  00000+0 0  9991
2 32050   0.4228  96.4091 0003398 200.5111 105.5595  1.00274272 42933
UTC
Height (km)
Latitude
Longitude
Inclination
Orbital Period
UTC large
Height (km)
Speed (km/s)
/
Latitude / Longitude
Inclination (degrees)
Orbital Period (minutes)
Azimuth
Elevation
Range (km)
Doppler Factor
iOS Compass Heading
iOS Angle

Next 30 passes for location: Hong Kong

Rise time Rise Azimuth (degrees) Set time Set Azimuth (degrees) Duration Max altitude (degrees)

No matching passes for this satellites